Location: Usti nad Labem
(50.6670°N, 14.0330°E)
Time: 21:41:48
(UTC+01:00)

Envisat - Pass Details

Date: 06 December 2020
Orbit: 764 x 766 km, 98.1° (Epoch: 15 January)

Event Time Altitude Azimuth Distance (km) Brightness Sun altitude
Rises 06:30:14 0° 12° (NNE) 3,246 6.2 -11.9°
Reaches altitude 10° 06:32:34 10° 9° (N) 2,315 5.4 -11.6°
Maximum altitude 06:37:37 65° 289° (WNW) 843 3.0 -10.9°
Drops below altitude 10° 06:42:37 10° 208° (SSW) 2,298 5.4 -10.1°
Sets 06:44:56 0° 206° (SSW) 3,219 6.2 -9.8°
